Location: Castillon
(43.0896°N, 0.2156°E)
Time: 02:50:36
(UTC+00:00)

Meteor 1-4 Rocket - Pass Details

Date: 16 June 2021
Orbit: 447 x 499 km, 81.2° (Epoch: 04 August)

Event Time Altitude Azimuth Distance (km) Brightness Sun altitude
Rises 23:40:22 0° 356° (N) 2,489 7.6 -23.4°
Reaches altitude 10° 23:42:32 10° 4° (N) 1,602 6.3 -23.4°
Enters shadow 23:45:20 39° 50° (NE) 698 3.5 -23.4°
